Show Low, AZ

10:37 PM MST on April 26, 2017 (GMT -0700)
Show Low Municipal

Weather History for KSOW - February, 2014

Change the Weather History Date:

Wednesday, February 26, 2014

  Actual Average Record
Temperature  
Mean Temperature 49 °F -  
Max Temperature 59 °F 45 °F 71 °F (1989)
Min Temperature 39 °F 28 °F 1 °F (1977)
Degree Days  
Heating Degree Days 16    
Moisture  
Dew Point 23 °F    
Average Humidity 41    
Maximum Humidity 61    
Minimum Humidity 23    
Precipitation  
Precipitation 0.00 in - - ()
Sea Level Pressure  
Sea Level Pressure 30.11 in    
Wind  
Wind Speed 10 mph (SSW)    
Max Wind Speed 18 mph    
Max Gust Speed 23 mph    
Visibility 10 miles    
Events      
Averages and records for this station are not official NWS values.
T = Trace of Precipitation, MM = Missing Value Source: NWS Daily Summary

Daily Weather History Graph

Daily Weather History Graph

Search for Another Location

Airport or City:

Trip Planner

Search our weather history database for the weather conditions in past years. The results will help you decide how hot, cold, wet, or windy it might be!

Date:

Astronomy

Feb. 26, 2014 Rise Set
Actual Time 6:52 AM MST 6:13 PM MST
Civil Twilight 6:27 AM MST 6:39 PM MST
Nautical Twilight 5:58 AM MST 7:08 PM MST
Astronomical Twilight 5:29 AM MST 7:37 PM MST
Moon 4:35 AM MST (2/26) 3:37 PM MST (2/26)
Length of Visible Light 12h 11m
Length of Day
11h 21m
Waning Crescent, 9% of the Moon is Illuminated
Feb 26
Waning Crescent
Mar 1
New
Mar 8
First Quarter
Mar 16
Full
Mar 23
Last Quarter

Hourly Weather History & Observations

Time (MST) Temp. Windchill Dew Point Humidity Pressure Visibility Wind Dir Wind Speed Gust Speed Precip Events Conditions
12:15 AM 41.0 °F 35.8 °F 21.2 °F 45% 30.13 in 10.0 mi South 8.1 mph - N/A   Clear
12:35 AM 41.0 °F 34.7 °F 21.2 °F 45% 30.13 in 10.0 mi South 10.4 mph - N/A   Clear
12:55 AM 39.2 °F 32.5 °F 21.2 °F 49% 30.13 in 10.0 mi South 10.4 mph - N/A   Clear
1:15 AM 39.2 °F 32.5 °F 21.2 °F 49% 30.13 in 10.0 mi South 10.4 mph - N/A   Clear
1:35 AM 39.2 °F 33.0 °F 21.2 °F 49% 30.13 in 10.0 mi South 9.2 mph - N/A   Clear
1:55 AM 39.2 °F 32.0 °F 21.2 °F 49% 30.13 in 10.0 mi South 11.5 mph - N/A   Clear
2:15 AM 39.2 °F 33.0 °F 21.2 °F 49% 30.13 in 10.0 mi South 9.2 mph - N/A   Clear
2:35 AM 39.2 °F 32.5 °F 23.0 °F 52% 30.13 in 10.0 mi South 10.4 mph - N/A   Clear
2:55 AM 39.2 °F 32.0 °F 23.0 °F 52% 30.12 in 10.0 mi South 11.5 mph - N/A   Clear
3:15 AM 39.2 °F 31.6 °F 23.0 °F 52% 30.12 in 10.0 mi South 12.7 mph - N/A   Clear
3:35 AM 39.2 °F 32.0 °F 23.0 °F 52% 30.11 in 10.0 mi South 11.5 mph - N/A   Clear
3:55 AM 39.2 °F 31.6 °F 23.0 °F 52% 30.11 in 10.0 mi South 12.7 mph - N/A   Clear
4:15 AM 39.2 °F 32.0 °F 23.0 °F 52% 30.11 in 10.0 mi South 11.5 mph - N/A   Clear
4:35 AM 39.2 °F 32.0 °F 24.8 °F 56% 30.11 in 10.0 mi South 11.5 mph - N/A   Clear
4:55 AM 39.2 °F 31.6 °F 24.8 °F 56% 30.11 in 10.0 mi South 12.7 mph - N/A   Clear
5:15 AM 39.2 °F 32.0 °F 24.8 °F 56% 30.12 in 10.0 mi South 11.5 mph - N/A   Clear
5:35 AM 39.2 °F 32.0 °F 24.8 °F 56% 30.12 in 10.0 mi South 11.5 mph - N/A   Clear
5:55 AM 39.2 °F 32.0 °F 24.8 °F 56% 30.13 in 10.0 mi South 11.5 mph - N/A   Clear
6:15 AM 39.2 °F 32.0 °F 24.8 °F 56% 30.14 in 10.0 mi South 11.5 mph - N/A   Clear
6:35 AM 39.2 °F 32.0 °F 24.8 °F 56% 30.14 in 10.0 mi South 11.5 mph - N/A   Clear
6:55 AM 39.2 °F 32.0 °F 24.8 °F 56% 30.14 in 10.0 mi South 11.5 mph - N/A   Clear
7:15 AM 39.2 °F 32.0 °F 24.8 °F 56% 30.15 in 10.0 mi South 11.5 mph - N/A   Clear
7:35 AM 39.2 °F 32.0 °F 26.6 °F 61% 30.15 in 10.0 mi South 11.5 mph - N/A   Clear
7:55 AM 41.0 °F 34.7 °F 26.6 °F 57% 30.16 in 10.0 mi South 10.4 mph - N/A   Clear
8:15 AM 44.6 °F 38.4 °F 26.6 °F 49% 30.16 in 10.0 mi South 12.7 mph - N/A   Clear
8:35 AM 44.6 °F 39.2 °F 26.6 °F 49% 30.17 in 10.0 mi South 10.4 mph - N/A   Clear
8:55 AM 46.4 °F 41.9 °F 28.4 °F 50% 30.17 in 10.0 mi SSW 9.2 mph - N/A   Clear
9:15 AM 48.2 °F - 26.6 °F 43% 30.17 in 10.0 mi SW 8.1 mph - N/A   Clear
9:35 AM 48.2 °F - 28.4 °F 46% 30.17 in 10.0 mi South 8.1 mph - N/A   Clear
9:55 AM 50.0 °F - 24.8 °F 37% 30.17 in 10.0 mi WSW 6.9 mph - N/A   Clear
10:15 AM 51.8 °F - 23.0 °F 33% 30.17 in 10.0 mi South 4.6 mph - N/A   Clear
10:35 AM 53.6 °F - 24.8 °F 33% 30.16 in 10.0 mi SW 6.9 mph - N/A   Clear
10:55 AM 53.6 °F - 23.0 °F 30% 30.16 in 10.0 mi SW 8.1 mph - N/A   Clear
11:15 AM 55.4 °F - 23.0 °F 29% 30.16 in 10.0 mi West 5.8 mph - N/A   Clear
11:35 AM 55.4 °F - 23.0 °F 29% 30.15 in 10.0 mi WSW 9.2 mph - N/A   Partly Cloudy
11:55 AM 55.4 °F - 23.0 °F 29% 30.14 in 10.0 mi West 3.5 mph - N/A   Mostly Cloudy
12:15 PM 57.2 °F - 23.0 °F 27% 30.13 in 10.0 mi WSW 8.1 mph - N/A   Partly Cloudy
12:35 PM 57.2 °F - 21.2 °F 25% 30.11 in 10.0 mi SSW 9.2 mph - N/A   Scattered Clouds
12:55 PM 57.2 °F - 23.0 °F 27% 30.11 in 10.0 mi SW 11.5 mph 17.3 mph N/A   Partly Cloudy
1:15 PM 57.2 °F - 23.0 °F 27% 30.09 in 10.0 mi WSW 15.0 mph 19.6 mph N/A   Scattered Clouds
1:35 PM 57.2 °F - 21.2 °F 25% 30.08 in 10.0 mi SSW 13.8 mph 18.4 mph N/A   Partly Cloudy
1:55 PM 59.0 °F - 23.0 °F 25% 30.07 in 10.0 mi WSW 15.0 mph 20.7 mph N/A   Partly Cloudy
2:15 PM 57.2 °F - 21.2 °F 25% 30.06 in 10.0 mi SW 10.4 mph 19.6 mph N/A   Scattered Clouds
2:35 PM 57.2 °F - 19.4 °F 23% 30.06 in 10.0 mi SSW 9.2 mph 20.7 mph N/A   Scattered Clouds
2:55 PM 59.0 °F - 21.2 °F 23% 30.05 in 10.0 mi SW 17.3 mph 21.9 mph N/A   Scattered Clouds
3:15 PM 59.0 °F - 21.2 °F 23% 30.05 in 10.0 mi SW 16.1 mph 23.0 mph N/A   Mostly Cloudy
3:35 PM 59.0 °F - 21.2 °F 23% 30.05 in 10.0 mi West 15.0 mph 19.6 mph N/A   Mostly Cloudy
3:55 PM 57.2 °F - 23.0 °F 27% 30.05 in 10.0 mi SSW 12.7 mph - N/A   Scattered Clouds
4:15 PM 57.2 °F - 23.0 °F 27% 30.05 in 10.0 mi WSW 12.7 mph 18.4 mph N/A   Partly Cloudy
4:35 PM 57.2 °F - 23.0 °F 27% 30.05 in 10.0 mi SW 15.0 mph 21.9 mph N/A   Scattered Clouds
4:55 PM 57.2 °F - 23.0 °F 27% 30.05 in 10.0 mi SW 15.0 mph 23.0 mph N/A   Clear
5:15 PM 55.4 °F - 23.0 °F 29% 30.05 in 10.0 mi SSW 13.8 mph - N/A   Clear
5:35 PM 53.6 °F - 19.4 °F 26% 30.05 in 10.0 mi SW 18.4 mph - N/A   Clear
5:55 PM 51.8 °F - 21.2 °F 30% 30.05 in 10.0 mi SSW 13.8 mph - N/A   Clear
6:15 PM 50.0 °F - 21.2 °F 32% 30.06 in 10.0 mi SSW 10.4 mph - N/A   Clear
6:35 PM 50.0 °F - 21.2 °F 32% 30.06 in 10.0 mi SSW 10.4 mph - N/A   Clear
6:55 PM 48.2 °F - 21.2 °F 34% 30.07 in 10.0 mi SSW 13.8 mph - N/A   Clear
7:15 PM 50.0 °F - 21.2 °F 32% 30.07 in 10.0 mi SW 15.0 mph - N/A   Clear
7:35 PM 48.2 °F - 21.2 °F 34% 30.08 in 10.0 mi SSW 11.5 mph - N/A   Clear
7:55 PM 48.2 °F - 21.2 °F 34% 30.08 in 10.0 mi SSW 8.1 mph - N/A   Clear
8:15 PM 46.4 °F 45.2 °F 21.2 °F 37% 30.09 in 10.0 mi South 3.5 mph - N/A   Clear
8:35 PM 46.4 °F 44.3 °F 23.0 °F 40% 30.09 in 10.0 mi South 4.6 mph - N/A   Clear
8:55 PM 44.6 °F - 23.0 °F 43% 30.09 in 10.0 mi Calm Calm - N/A   Clear
9:15 PM 46.4 °F - 23.0 °F 40% 30.09 in 10.0 mi Calm Calm - N/A   Clear
9:35 PM 44.6 °F 41.4 °F 24.8 °F 46% 30.10 in 10.0 mi SSW 5.8 mph - N/A   Clear
9:55 PM 44.6 °F 39.2 °F 24.8 °F 46% 30.10 in 10.0 mi SSW 10.4 mph - N/A   Clear
10:15 PM 44.6 °F 40.2 °F 24.8 °F 46% 30.10 in 10.0 mi SSW 8.1 mph - N/A   Clear
10:35 PM 44.6 °F 40.2 °F 24.8 °F 46% 30.10 in 10.0 mi SSW 8.1 mph - N/A   Partly Cloudy
10:55 PM 44.6 °F 39.7 °F 26.6 °F 49% 30.10 in 10.0 mi South 9.2 mph - N/A   Mostly Cloudy
11:15 PM 44.6 °F 40.2 °F 26.6 °F 49% 30.10 in 10.0 mi SSW 8.1 mph - N/A   Overcast
11:35 PM 44.6 °F 40.7 °F 26.6 °F 49% 30.09 in 10.0 mi South 6.9 mph - N/A   Mostly Cloudy
11:55 PM 44.6 °F 38.8 °F 26.6 °F 49% 30.09 in 10.0 mi SSW 11.5 mph - N/A   Scattered Clouds